Cartersville, GA

3:25 AM EDT on May 25, 2018 (GMT -0400)
Cartersville

Weather History for KVPC - October, 2013

Change the Weather History Date:

Monday, October 28, 2013

  Actual Average Record
Temperature  
Mean Temperature 59 °F 57 °F  
Max Temperature 66 °F 70 °F 83 °F (2016)
Min Temperature 51 °F 44 °F 24 °F (2001)
Degree Days  
Heating Degree Days 6 8  
Month to date heating degree days 138 145  
Since 1 July heating degree days 139 163  
Cooling Degree Days 0 1  
Month to date cooling degree days 43 38  
Year to date cooling degree days 1434 1510  
Growing Degree Days 8 (Base 50)    
Moisture  
Dew Point 54 °F    
Average Humidity 84    
Maximum Humidity 100    
Minimum Humidity 67    
Precipitation  
Precipitation 0.16 in 0.12 in 1.12 in (2002)
Month to date precipitation 1.66 3.05  
Year to date precipitation 41.26  
Snow  
Snow 0.00 in - - ()
Month to date snowfall 0.0  
Since 1 July snowfall 0.0  
Since 1 September snowfall 0.0  
Snow Depth 0.00 in    
Sea Level Pressure  
Sea Level Pressure 30.21 in    
Wind  
Wind Speed 0 mph (SSW)    
Max Wind Speed 6 mph    
Max Gust Speed 13 mph    
Visibility 6 miles    
Events Rain    
T = Trace of Precipitation, MM = Missing Value Source: NWS Daily Summary

Daily Weather History Graph

Daily Weather History Graph

Search for Another Location

Airport or City:

Astronomy

Oct. 28, 2013 Rise Set
Actual Time 7:55 AM EDT 6:50 PM EDT
Civil Twilight 7:29 AM EDT 7:15 PM EDT
Nautical Twilight 7:00 AM EDT 7:45 PM EDT
Astronomical Twilight 6:31 AM EDT 8:14 PM EDT
Moon 2:03 AM EDT (10/28) 3:17 PM EDT (10/28)
Length of Visible Light 11h 45m
Length of Day
10h 54m
Waning Crescent, 34% of the Moon is Illuminated
Oct 28
Waning Crescent
Nov 3
New
Nov 10
First Quarter
Nov 17
Full
Nov 25
Last Quarter

Hourly Weather History & Observations

Time (EDT) Temp. Dew Point Humidity Pressure Visibility Wind Dir Wind Speed Gust Speed Precip Events Conditions
12:53 AM 54.0 °F 52.0 °F 93% 30.14 in 8.0 mi Calm Calm - N/A   Overcast
1:53 AM 54.0 °F 53.1 °F 97% 30.13 in 4.0 mi Calm Calm - 0.06 in Rain Light Rain
2:53 AM 55.0 °F 54.0 °F 96% 30.14 in 4.0 mi Calm Calm - 0.05 in   Overcast
3:53 AM 54.0 °F 53.1 °F 97% 30.15 in 3.0 mi Calm Calm - N/A   Overcast
4:16 AM 53.6 °F 51.8 °F 94% 30.16 in 2.0 mi Calm Calm - N/A   Overcast
4:23 AM 53.6 °F 51.8 °F 94% 30.16 in 1.0 mi Calm Calm - N/A   Overcast
4:53 AM 52.0 °F 51.1 °F 97% 30.15 in 2.0 mi Calm Calm - N/A   Mostly Cloudy
5:00 AM 51.8 °F 51.8 °F 100% 30.17 in 1.8 mi Calm Calm - N/A   Mostly Cloudy
5:02 AM 51.8 °F 51.8 °F 100% 30.17 in 2.0 mi Calm Calm - N/A   Mostly Cloudy
5:13 AM 51.8 °F 51.8 °F 100% 30.17 in 3.0 mi Calm Calm - N/A   Overcast
5:53 AM 53.1 °F 52.0 °F 96% 30.16 in 4.0 mi Calm Calm - N/A   Overcast
6:19 AM 51.8 °F 51.8 °F 100% 30.19 in 1.8 mi Calm Calm - N/A   Mostly Cloudy
6:28 AM 51.8 °F 51.8 °F 100% 30.20 in 0.8 mi Calm Calm - N/A   Mostly Cloudy
6:33 AM 51.8 °F 51.8 °F 100% 30.20 in 2.5 mi Calm Calm - N/A   Mostly Cloudy
6:41 AM 53.6 °F 51.8 °F 94% 30.20 in 5.0 mi Calm Calm - N/A   Overcast
6:53 AM 53.1 °F 52.0 °F 96% 30.19 in 4.0 mi Calm Calm - N/A   Overcast
7:53 AM 53.1 °F 52.0 °F 96% 30.21 in 4.0 mi Calm Calm - 0.01 in Rain Light Rain
8:37 AM 53.6 °F 53.6 °F 100% 30.23 in 2.5 mi Calm Calm - 0.03 in Rain Light Rain
8:50 AM 53.6 °F 53.6 °F 100% 30.24 in 4.0 mi Calm Calm - 0.03 in Rain Light Rain
8:53 AM 54.0 °F 53.1 °F 97% 30.22 in 5.0 mi Calm Calm - 0.03 in Rain Light Rain
9:53 AM 55.0 °F 54.0 °F 96% 30.24 in 4.0 mi Calm Calm - 0.01 in   Overcast
10:53 AM 57.9 °F 55.0 °F 90% 30.26 in 7.0 mi Calm Calm - N/A   Overcast
11:53 AM 57.9 °F 55.9 °F 93% 30.26 in 6.0 mi Calm Calm - N/A   Overcast
12:02 PM 57.2 °F 55.4 °F 94% 30.28 in 6.0 mi Calm Calm - N/A   Overcast
12:53 PM 61.0 °F 57.0 °F 87% 30.26 in 9.0 mi Calm Calm - N/A   Overcast
1:53 PM 62.1 °F 55.9 °F 80% 30.24 in 10.0 mi Calm Calm - N/A   Overcast
2:53 PM 63.0 °F 53.1 °F 70% 30.22 in 10.0 mi SSW 4.6 mph - N/A   Overcast
3:53 PM 64.0 °F 54.0 °F 70% 30.20 in 10.0 mi Calm Calm - N/A   Overcast
4:53 PM 64.9 °F 54.0 °F 68% 30.21 in 10.0 mi Calm Calm - N/A   Overcast
5:53 PM 63.0 °F 55.9 °F 78% 30.21 in 10.0 mi Calm Calm - N/A   Overcast
6:53 PM 61.0 °F 57.0 °F 87% 30.23 in 10.0 mi Calm Calm - N/A   Overcast
7:53 PM 60.1 °F 55.9 °F 86% 30.25 in 10.0 mi Calm Calm - N/A   Overcast
8:53 PM 59.0 °F 55.9 °F 90% 30.26 in 10.0 mi Calm Calm - N/A   Overcast
9:53 PM 57.0 °F 55.0 °F 93% 30.26 in 10.0 mi Calm Calm - N/A   Overcast
10:53 PM 57.0 °F 55.0 °F 93% 30.26 in 9.0 mi Calm Calm - N/A   Overcast
11:53 PM 55.0 °F 54.0 °F 96% 30.26 in 5.0 mi Calm Calm - N/A   Mostly Cloudy